Overview Statistics Trail Chart Weather Telemetry Raw packets
 

This is the latest recevied weather packets stored in our database for station/object I4GOS-3. If no packets are shown the sender has not sent any weather packets the latest 10 day(s).

<< 120 121 122 123 124 125 126 >>
Time Temp. Humidity Pressure Rain* Wind** Luminosity Snow
1787980360 29.44° C 47% 1012.7 hPa 0 mm - - -
1787980059 29.44° C 47% 1012.8 hPa 0 mm - - -
1787979759 29.44° C 47% 1012.8 hPa 0 mm - - -
1787979459 29.44° C 47% 1012.8 hPa 0 mm - - -
1787979197 29.44° C 48% 1012.8 hPa 0 mm - - -
1787979159 29.44° C 48% 1012.8 hPa 0 mm - - -
1787978858 28.89° C 48% 1012.7 hPa 0 mm - - -
1787978558 28.89° C 48% 1012.6 hPa 0 mm - - -
1787978258 28.89° C 48% 1012.8 hPa 0 mm - - -
1787977958 28.89° C 47% 1012.7 hPa 0 mm - - -
1787977656 28.89° C 50% 1012.7 hPa 0 mm - - -
1787977355 28.89° C 49% 1012.7 hPa 0 mm - - -
1787977055 28.33° C 48% 1012.7 hPa 0 mm - - -
1787976755 28.89° C 50% 1012.5 hPa 0 mm - - -
1787976455 28.89° C 51% 1012.6 hPa 0 mm - - -
1787976154 28.89° C 54% 1012.4 hPa 0 mm - - -
1787975854 28.89° C 58% 1012.4 hPa 0 mm - - -
1787975554 29.44° C 64% 1012.1 hPa 0 mm - - -
1787975254 29.44° C 64% 1012.2 hPa 0 mm - - -
1787974954 29.44° C 64% 1011.9 hPa 0 mm - - -
1787974653 29.44° C 64% 1011.8 hPa 0 mm - - -
1787974353 29.44° C 64% 1011.7 hPa 0 mm - - -
1787974053 30° C 63% 1011.7 hPa 0 mm - - -
1787973789 30° C 63% 1011.7 hPa 0 mm - - -
1787973752 30° C 63% 1011.7 hPa 0 mm - - -

* Rain latest hour (hover to see other rain measurements)
** Current wind speed in m/s (hover to see current wind gust speed)